• MPC Preparation (Info)

  • MPEC 2004-K26 : 2004 KF1

    The following Minor Planet Electronic Circular may be linked-to from your own Web pages, but must not otherwise be redistributed electronically.

    A form allowing access to any MPEC is at the bottom of this page.


    Read MPEC 2004-K25 Read MPEC 2004-K27


    M.P.E.C. 2004-K26                                Issued 2004 May 20, 14:09 UT
    
         The Minor Planet Electronic Circulars contain information on unusual
             minor planets and routine data on comets.  They are published
       on behalf of Commission 20 of the International Astronomical Union by the
              Minor Planet Center, Smithsonian Astrophysical Observatory,
                              Cambridge, MA 02138, U.S.A.
    
             Supported in part by the Steven and Michele Kirsch Foundation
                 Prepared using the Tamkin Foundation Computer Network
    
                                  MPC@CFA.HARVARD.EDU
              URL http://cfa-www.harvard.edu/iau/mpc.html  ISSN 1523-6714
    
                                       2004 KF1
    
    Observations:
         K04K01F* C2004 05 19.26597 13 19 35.82 -17 31 37.1          18.2   EK026704
         K04K01F  C2004 05 19.27523 13 19 37.12 -17 31 18.9          18.9   EK026704
         K04K01F  C2004 05 19.28449 13 19 38.60 -17 30 59.0          19.1   EK026704
         K04K01F  C2004 05 19.29390 13 19 40.05 -17 30 38.8          18.4   EK026704
         K04K01F  C2004 05 19.30319 13 19 41.45 -17 30 19.2          18.8   EK026704
         K04K01F WC2004 05 19.85707 13 21 15.05 -17 11 26.2                 EK026557
         K04K01F  C2004 05 19.85859 13 21 15.29 -17 11 21.7                 EK026557
         K04K01F  C2004 05 19.85982 13 21 15.77 -17 11 17.5          18.8 R EK026132
         K04K01F  C2004 05 19.86162 13 21 15.68 -17 11 15.1                 EK026557
         K04K01F  C2004 05 19.86458 13 21 16.51 -17 11 08.5          19.4 R EK026132
         K04K01F  C2004 05 19.86918 13 21 16.93 -17 11 01.1                 EK026246
         K04K01F  C2004 05 19.86934 13 21 17.22 -17 10 57.9          19.4 R EK026132
         K04K01F  C2004 05 19.87110 13 21 17.31 -17 10 54.3                 EK026246
         K04K01F  C2004 05 19.87204 13 21 17.40 -17 10 53.2                 EK026246
         K04K01F  C2004 05 19.87314 13 21 17.55 -17 10 51.3                 EK026246
         K04K01F  C2004 05 19.87428 13 21 17.74 -17 10 48.8                 EK026246
         K04K01F  C2004 05 20.26028 13 22 22.17 -16 57 22.8          18.3 R EK026926
         K04K01F  C2004 05 20.26230 13 22 22.50 -16 57 18.1          18.5 R EK026926
         K04K01F  C2004 05 20.26433 13 22 22.83 -16 57 13.7          18.6 R EK026926
         K04K01F 5C2004 05 20.26493 13 22 23.21 -16 57 13.9          19.5 R EK026673
         K04K01F 5C2004 05 20.26759 13 22 23.62 -16 57 08.6                 EK026673
         K04K01F 5C2004 05 20.27650 13 22 25.02 -16 56 50.1                 EK026673
         K04K01F 5C2004 05 20.27836 13 22 25.29 -16 56 46.3                 EK026673
         K04K01F  C2004 05 20.28272 13 22 25.71 -16 56 35.9          19.1 R EK026854
         K04K01F  C2004 05 20.28600 13 22 26.24 -16 56 28.3          19.1 R EK026854
         K04K01F  C2004 05 20.28934 13 22 26.69 -16 56 22.1          19.1 R EK026854
         K04K01F  C2004 05 20.52546 13 23 07.57 -16 47 31.7          19.4 R EK026E12
         K04K01F  C2004 05 20.53003 13 23 08.28 -16 47 22.7          19.0 R EK026E12
         K04K01F  C2004 05 20.53460 13 23 08.99 -16 47 13.5          18.7 R EK026E12
         K04K01F  C2004 05 20.53914 13 23 09.62 -16 47 03.9          18.4 R EK026E12
    
    Observer details:
    132 Bedoin.  Observer P. Antonini.  0.30-m f/3.3 Schmidt-Cassegrain + CCD.
    246 Klet Observatory-KLENOT.  Observers J. Ticha, M. Tichy.  1.06-m KLENOT
        Telescope + CCD.
    557 Ondrejov.  Observer L. Sarounova.  0.65-m f/3.6 reflector + CCD.
    673 Table Mountain Observatory, Wrightwood.  Observers J. Young, G. Jones.
        0.6-m reflector + CCD.
    704 Lincoln Laboratory ETS, New Mexico.  Observers M. Blythe, F. Shelly,
        M. Bezpalko, R. Huber, L. Manguso, D. Torres, R. Kracke, M. McCleary,
        H. Stange, A. Milner.  Measurers J. Stuart, R. Sayer, J. Evans, J. Kommers.
        1.0-m f/2.15 reflector + CCD.
    854 Sabino Canyon Observatory, Tucson.  Observer J. E. McGaha.  0.356-m f/10.0
        Schmidt-Cassegrain + CCD.
    926 Tenagra II Observatory.  Observers P. R. Holvorcem, M. Schwartz.  0.81-m
        f/7 Ritchey-Chretien + CCD.
    E12 Siding Spring Survey.  Observers R. H. McNaught, S. Larson, E. Beshore,
        E. Christensen, R. Hill, D. McLean.  0.5-m Uppsala Schmidt + CCD.
    
    Orbital elements:
    2004 KF1
    Epoch 2004 May 15.0 TT = JDT 2453140.5                  MPC
    M 353.76966              (2000.0)            P               Q
    n   0.30807271     Peri.    5.16678     -0.38848629     +0.90976126
    a   2.1712036      Node   242.04121     -0.85124167     -0.41513181
    e   0.4528682      Incl.    9.53599     -0.35279744     -0.00014819
    P   3.20           H   20.9           G   0.15
    From 30 observations 2004 May 19-20.
    
    Ephemeris:
    2004 KF1                 a,e,i = 2.17, 0.45, 10                  q = 1.1879
    Date    TT    R. A. (2000) Decl.     Delta      r     Elong.  Phase     V
    2004 05 15    13 08.66   -19 53.9    0.226    1.207   147.1    27.1    19.3
    2004 05 25    13 36.65   -14 11.0    0.216    1.193   143.3    30.5    19.3
    2004 06 04    14 11.42   -08 27.5    0.217    1.188   139.7    33.6    19.4
    2004 06 14    14 49.55   -03 36.0    0.229    1.192   136.4    35.9    19.6
    2004 06 24    15 27.63   -00 14.1    0.254    1.206   133.9    37.4    19.8
    2004 07 04    16 03.41   +01 32.4    0.289    1.229   131.9    38.0    20.2
    2004 07 14    16 35.81   +02 00.0    0.334    1.259   130.4    37.9    20.5
    2004 07 24    17 05.06   +01 31.5    0.390    1.297   128.9    37.6    20.9
    2004 08 03    17 31.77   +00 29.6    0.455    1.340   127.2    37.1    21.3
    2004 08 13    17 56.52   -00 48.2    0.530    1.388   125.1    36.7    21.7
    
    Timothy B. Spahr             (C) Copyright 2004 MPC           M.P.E.C. 2004-K26
    

    Read MPEC 2004-K25 Read MPEC 2004-K27


    MPEC number:

    Enter an MPEC number in one of the following forms:

    • 1997-B01 (the full form)
    • J97B01 (the packed version of the full form)
    • B01 (the abbreviated form)